Weather Roundup
Issued by NWS

Home | Current Version | Previous Version | Text Only | Print | Product List | Glossary On
Versions: 1 2 3 4 5 6 7 8 9 10 11 12 13 14 15 16 17 18 19 20 21 22 23 24 25 26 27 28 29 30 31 32 33 34 35 36 37 38 39 40 41 42 43 44 45 46 47 48 49 50
541
NZUS93 KARX 171610
HRRWXR

CURRENT HOURLY OBSERVATIONS ACROSS
MUCH OF THE UPPER MISSISSIPPI VALLEY
NATIONAL WEATHER SERVICE LA CROSSE WI
1000 AM CST SUN DEC 17 2017


...SOUTHEAST MINNESOTA...


CITY           SKY/WX    TMP DP  RH WIND       PRES   REMARKS
ROCHESTER      FOG       26  25  96 E8        30.03F VSB 1/4 WCI  18
ROCHESTER/MAYO CLOUDY    26  26 100 CALM      30.06F
WINONA         CLOUDY    30  28  93 SE5       30.09F WCI  25
AUSTIN         CLOUDY    27  25  93 E5        30.03F FOG     WCI  21
ALBERT LEA     CLOUDY    27  25  93 E3        30.03F FOG
DODGE CENTER   FOG       25  23  93 E5        30.04F VSB 1/4 WCI  19
PRESTON        MIX PCPN  26  25  95 E6        30.04F WCI  19
OWATONNA       CLOUDY    25  25 100 E3        30.05F FOG
FARIBAULT      CLOUDY    25  23  93 CALM      30.07S FOG
$$

...ELSEWHERE IN MINNESOTA...


CITY           SKY/WX    TMP DP  RH WIND       PRES   REMARKS
MINNEAPOLIS    CLOUDY    24  24 100 E5        30.09F FOG     WCI  18
INTNL FALLS    CLOUDY    24  22  91 SW7       29.98F FOG     WCI  16
DULUTH         FOG       20  20 100 S6        30.06R VSB 1/4 WCI  12
RED WING       CLOUDY    27  23  86 SE6       30.09S FOG     WCI  20
REDWOOD FALLS  CLOUDY    27  23  85 NE3       30.08R FOG
MANKATO        CLOUDY    23  20  88 NE5       30.09R WCI  17
WORTHINGTON    FOG       25  25 100 N8        30.04S VSB 3/4 WCI  16
FAIRMONT       CLOUDY    26  23  88 N8        30.05F WCI  18
$$

...SOUTHWEST WISCONSIN...


CITY           SKY/WX    TMP DP  RH WIND       PRES   REMARKS
LA CROSSE      CLOUDY    31  27  85 E5        30.08F WCI  26
PRAIRIE DU CHI CLOUDY    32  28  85 E6        30.06F FOG     WCI  27
BOSCOBEL       CLOUDY    33  29  85 NE3       30.08F FOG
LONE ROCK      CLOUDY    32  30  92 NE7       30.07F FOG     WCI  26
PLATTEVILLE    CLOUDY    33  32  96 E8        30.05R WCI  26
FORT MC COY    CLOUDY    28  27  96 CALM      30.09F FOG
CAMP DOUGLAS   CLOUDY    28  25  86 E8        30.10S WCI  20
MAUSTON-NEW LI CLOUDY    28  26  92 CALM      30.08F FOG
VIROQUA        CLOUDY    28  28 100 CALM      30.05F VSB 1
WIS DELLS      CLOUDY    29  27  92 NE8       30.07F WCI  21
$$

...ELSEWHERE IN WISCONSIN...


CITY           SKY/WX    TMP DP  RH WIND       PRES   REMARKS
MILWAUKEE      CLOUDY    34  31  88 E10       30.09F FOG     WCI  26
MADISON        CLOUDY    33  30  88 E12       30.07F FOG     WCI  24
GREEN BAY      CLOUDY    27  22  81 N8        30.13F WCI  19
EAU CLAIRE     CLOUDY    26  25  96 SE6       30.08F FOG     WCI  19
BLACK RVR FLS  CLOUDY    29  26  88 CALM      30.09S FOG
MEDFORD        CLOUDY    24  23  96 SE5       30.07S FOG     WCI  18
WAUSAU         CLOUDY    23  23 100 SE6       30.09R FOG     WCI  16
WIS RAPIDS     CLOUDY    26  23  88 E5        30.12S FOG     WCI  20
MARSHFIELD     CLOUDY    24  24 100 E6        30.08S FOG     WCI  17
RICE LAKE      FOG       25  25  98 CALM      30.10S VSB 1/2
$$

...NORTHEAST IOWA...


CITY           SKY/WX    TMP DP  RH WIND       PRES   REMARKS
WATERLOO       CLOUDY    30  28  92 E9        30.05R FOG     WCI  22
DUBUQUE        CLOUDY    32  30  92 E8        30.04R FOG     WCI  25
DECORAH        CLOUDY    28  28 100 E7        30.04R FOG     WCI  21
MASON CITY     FOG       27  26  96 E7        30.05R VSB 1/2 WCI  19
CHARLES CITY   FOG       28  28 100 E8        30.04S VSB 1   WCI  20
OELWEIN        CLOUDY    32  32 100 E10       30.04R FOG     WCI  24
$$

...ELSEWHERE IN IOWA...


CITY           SKY/WX    TMP DP  RH WIND       PRES   REMARKS
DES MOINES     CLOUDY    33  26  75 E6        30.01S WCI  28
IOWA CITY      CLOUDY    34  29  82 E6        30.06R HAZE    WCI  29
FORT DODGE     FOG       25  24  96 N8        30.03R VSB 1/2 WCI  16
MARSHALLTOWN   CLOUDY    32  29  88 E10       30.01S FOG     WCI  24
CEDAR RAPIDS   CLOUDY    32  30  92 E10       30.02R FOG     WCI  24
$$

...NORTHERN ILLINOIS...


CITY           SKY/WX    TMP DP  RH WIND       PRES   REMARKS
CHICAGO-OHARE  CLOUDY    37  33  85 NE7       30.06R FOG     WCI  32
CHICAGO-MIDWAY CLOUDY    39  34  82 S8        30.07R WCI  33
MOLINE         CLOUDY    34  30  85 E7        30.06R FOG     WCI  28
ROCKFORD       CLOUDY    34  31  88 E8        30.07S FOG     WCI  27
PEORIA         CLOUDY    44  31  60 SW10      30.07R
$$

NOTE: "FAIR" INDICATES FEW OR NO CLOUDS BELOW 12,000 FEET WITH NO
SIGNIFICANT WEATHER AND/OR OBSTRUCTIONS TO VISIBILITY. WIND
SPEEDS ARE IN MILES-PER-HOUR.




USA.gov is the U.S. government's official web portal to all federal, state and local government web resources and services.